Torna al catalogo

CZ-4 DEB

AttivoPO
NORAD 35378·DEBRIS·🇨🇳 China

Lanciato Oct 23, 2006 da Taiyuan Satellite Launch Center

Loading…

Prossimi Passaggi (prossime 24 ore)

TLE

AggiornatoSource: Space-Track

Epoca: Sep 14, 2026, 13:35 UTC

1 35378U 06046L   26257.56664466  .00061353  00000-0  15388-2 0  9992
2 35378  97.8213   2.1817 0036374 283.9607  75.7594 15.39126702 54355

Traccia CZ-4 DEB in tempo reale con AllMySat

Download on the App Store